Temperature
21 21 20 20 20 20 19 19 19 19 19 18 18 18 18 18 18 18 18 18 18 18 17 17 17 17 17 17 17 16 16 16 16 16 16 16 16 16 16 16 16 16 16
21 21 20 20 20 20 19 19 19 19 18 18 18 18 18 18 18 18 18 18 18 17 17 17 17 17 17 17 16 16 16 16 16 16 16 16 16 16 16 16 16 15 15
21 21 20 20 20 20 19 19 19 19 18 18 18 18 18 18 18 18 17 17 17 17 17 17 17 16 16 16 16 16 16 16 15 15 15 15 15 15 15 15 15 15 15
20 20 20 20 20 19 19 19 19 19 18 18 18 18 18 18 18 18 17 17 17 17 17 16 16 16 16 16 16 16 15 15 15 15 15 15 15 15 15 15 15 15 15
20 20 20 19 19 19 19 19 19 18 18 18 18 18 18 18 17 17 17 17 17 16 16 16 16 16 16 16 16 15 15 15 15 15 15 15 14 14 14 14 14 14 14
20 20 19 19 19 19 18 18 18 18 18 18 18 18 17 17 17 17 17 17 16 16 16 16 16 16 16 15 15 15 15 15 15 14 14 14 14 14 14 14 14 14 13
20 19 19 19 19 19 18 18 18 18 18 17 17 17 17 17 17 17 17 16 16 16 16 16 16 15 15 15 15 15 15 14 14 14 14 14 14 14 14 13 13 13 13
19 19 19 18 18 18 18 18 18 17 17 17 17 17 17 17 17 17 16 16 16 16 15 15 15 15 15 15 15 14 14 14 14 14 14 14 14 13 13 13 13 13 13
18 18 18 18 18 18 17 17 17 17 17 17 17 16 16 16 16 16 16 16 15 15 15 15 15 15 15 14 14 14 14 14 14 13 13 13 13 13 13 12 12 12 12
18 18 18 18 18 17 17 17 17 17 17 16 16 16 16 16 16 16 15 15 15 15 15 14 14 14 14 14 14 14 14 14 13 13 13 13 13 13 12 12 12 12 12
17 17 17 17 17 17 17 17 17 16 16 16 15 15 15 15 15 15 15 15 15 14 14 14 14 14 14 14 13 13 13 13 13 13 13 13 12 12 12 12 12 12 12
17 17 17 16 16 16 16 16 16 16 15 15 15 15 14 14 14 14 14 14 14 14 14 13 13 13 13 13 13 13 13 13 12 12 12 12 12 12 12 12 12 11 11
16 16 16 16 16 16 16 15 15 15 15 15 14 14 14 14 14 14 14 14 14 13 13 13 13 13 12 12 12 12 12 12 12 12 12 11 11 11 11 11 11 11 11
16 16 16 15 15 15 15 15 15 15 14 14 14 14 14 14 14 13 13 13 13 13 13 12 12 12 12 12 12 12 12 12 12 11 11 11 11 11 11 11 11 11 11
15 15 15 15 15 15 14 14 14 14 14 14 14 14 14 13 13 13 13 13 13 12 12 12 12 12 12 11 11 11 11 11 11 11 11 11 11 11 11 10 10 10 10
14 14 15 14 14 14 14 14 14 14 14 14 13 13 13 13 13 13 12 12 12 12 12 12 12 11 11 11 11 11 11 11 10 10 10 10 10 10 10 10 10 10 10
14 14 14 14 14 14 13 14 13 13 13 13 13 13 13 13 13 13 12 12 12 12 12 12 11 11 11 11 10 10 10 10 10 10 10 10 10 10 10 10 10 10 10
14 14 13 13 13 13 13 13 13 13 13 12 12 12 12 12 12 12 12 12 12 11 11 11 11 11 10 10 10 10 10 10 10 10 10 10 9 9 9 9 9 9 9
13 13 13 13 13 13 13 12 12 12 12 12 12 12 12 12 12 12 12 12 11 11 11 11 11 10 10 10 10 10 10 9 9 9 9 9 9 9 9 9 9 9 9
13 13 13 13 12 12 12 12 12 12 12 12 12 12 12 12 12 11 11 11 11 11 11 11 11 10 10 10 10 9 9 9 9 9 9 9 9 9 8 8 8 8 8
13 13 12 12 12 12 12 12 12 12 12 12 12 11 11 12 11 11 11 11 11 11 11 10 10 10 10 10 9 9 9 9 9 9 9 8 8 8 8 8 8 8 8
12 12 12 12 12 12 12 12 12 12 12 11 11 11 11 11 11 11 11 11 11 10 10 10 10 10 10 9 9 9 9 9 9 8 8 8 8 8 8 8 8 7 7
12 12 12 12 12 12 12 12 11 11 11 11 11 11 11 11 11 11 11 10 10 10 10 10 10 9 9 9 9 9 9 9 9 8 8 8 8 8 8 7 7 7 7
12 12 12 12 12 12 12 11 11 11 11 11 11 11 11 11 11 10 10 10 10 10 10 10 9 9 9 9 9 9 9 8 8 8 8 8 8 8 7 7 7 7 7
12 12 12 12 12 12 11 11 11 11 11 11 11 11 11 11 11 10 10 10 10 10 10 9 9 9 9 9 9 9 8 8 8 8 8 8 7 7 7 7 7 6 6
11 11 11 11 11 11 11 11 11 11 11 11 11 11 11 11 10 10 10 10 10 10 9 9 9 9 9 9 9 8 8 8 8 8 8 8 7 7 7 7 6 6 6
Wind_Speed
11 10 9 8 8 7 7 7 6 6 6 6 6 6 6 5 5 5 5 4 4 3 3 3 3 3 2 2 2 2 2 3 4 4 2 2 2 2 1 3 4 3 4
11 10 10 9 8 8 8 7 6 6 6 6 6 6 6 5 5 6 6 5 5 4 4 3 4 3 2 2 2 2 2 3 3 4 3 2 2 3 2 2 2 3 4
9 9 9 9 9 10 9 8 7 6 6 5 6 6 6 5 5 5 5 5 5 5 5 5 4 3 3 3 3 3 2 2 2 3 3 2 2 2 2 2 2 2 3
8 9 9 10 10 9 9 8 8 7 6 6 6 6 6 5 5 5 5 5 5 5 5 5 4 5 5 5 4 3 3 2 2 2 2 2 2 2 1 1 2 2 2
7 8 9 9 8 7 7 7 7 7 8 6 6 5 5 5 5 5 5 5 4 4 3 4 4 4 5 4 3 3 3 2 2 2 2 2 2 1 2 2 2 2 2
8 8 7 6 7 8 7 7 7 7 6 5 6 5 5 5 6 6 5 4 4 4 4 3 3 2 3 3 3 4 4 4 3 3 3 3 4 3 2 2 2 1 2
6 7 6 7 7 7 8 7 7 7 6 6 6 5 5 5 6 6 6 4 4 4 4 4 3 2 1 1 0 0 1 2 4 4 4 4 4 4 3 2 2 2 3
5 6 6 6 6 5 5 6 6 6 6 6 6 5 4 4 5 5 5 4 3 4 4 4 4 3 2 3 2 1 1 1 2 2 3 4 4 3 4 4 4 2 2
3 4 5 5 6 5 4 4 4 4 5 5 5 6 5 4 5 5 4 3 2 2 2 3 4 4 4 5 3 2 0 2 2 0 1 2 3 3 3 2 1 1 1
3 3 3 4 5 5 5 4 3 4 4 5 4 5 5 5 5 5 5 3 2 2 1 1 3 4 4 5 4 3 2 2 1 2 2 2 1 1 2 3 3 2 1
2 3 2 2 4 4 3 3 3 3 3 4 4 3 3 4 4 5 5 4 4 3 2 1 2 3 4 4 4 3 4 3 1 1 1 1 2 1 1 2 3 3 3
3 3 3 2 2 3 3 3 3 4 4 3 3 2 2 2 3 4 5 5 4 4 3 2 2 2 3 3 2 2 2 2 1 1 0 1 1 2 2 2 2 3 3
3 3 3 2 2 3 4 4 3 3 4 4 4 3 2 2 2 4 4 4 4 3 2 3 2 3 3 1 2 2 2 2 1 1 1 2 2 2 1 1 2 1 2
3 2 2 2 2 2 2 3 3 4 4 4 4 3 2 2 1 2 2 2 2 2 1 2 3 4 3 2 1 1 1 1 1 1 1 2 1 1 1 0 1 1 2
2 2 2 2 2 2 2 1 2 3 5 6 5 4 4 3 4 5 4 3 3 3 3 3 3 2 2 1 1 1 1 1 0 0 0 1 1 1 1 1 0 1 0
2 2 2 2 2 3 3 2 3 2 2 4 5 5 4 5 6 6 5 5 6 7 5 3 2 2 2 1 1 0 0 1 1 1 0 0 0 0 1 1 1 0 1
3 2 2 2 3 3 3 3 2 2 4 2 2 4 5 6 6 6 6 6 6 7 4 3 3 3 2 2 2 1 1 1 1 1 1 1 0 0 0 1 1 1 1
2 2 3 2 2 3 3 3 3 3 2 1 1 1 4 5 5 6 6 6 3 3 3 3 3 3 3 2 2 2 2 1 0 1 1 1 0 0 0 1 1 1 1
2 1 2 2 2 3 3 3 3 3 3 1 0 1 2 4 4 4 6 4 4 3 3 3 3 3 3 2 2 2 2 2 1 1 1 1 1 0 0 1 1 1 1
1 2 3 3 3 3 3 3 3 3 3 3 3 2 2 3 2 2 2 3 3 3 3 3 3 3 3 3 2 2 1 1 1 1 1 1 1 1 1 1 1 1 1
1 1 3 2 3 3 3 4 4 4 4 3 3 3 5 4 4 4 4 4 4 4 4 3 3 3 3 2 2 2 2 2 1 1 1 1 1 1 1 1 1 1 1
2 2 2 2 2 3 3 3 4 4 4 4 2 2 5 3 3 3 4 4 4 4 4 4 3 3 3 3 3 3 3 2 2 2 2 2 1 1 1 1 1 1 1
2 2 2 2 3 3 3 3 3 4 4 4 3 3 3 3 3 4 4 4 4 3 3 3 4 3 2 3 4 4 4 4 4 4 3 2 2 2 1 1 2 1 2
2 2 3 3 3 4 4 4 4 4 4 4 4 4 4 4 4 4 4 4 3 3 4 4 4 5 5 4 4 4 4 5 4 4 4 3 3 2 2 2 2 2 2
2 2 2 3 4 4 3 3 4 4 4 4 4 4 4 4 3 3 3 3 4 3 4 4 4 5 6 5 5 4 4 4 4 3 3 3 2 2 2 2 2 2 2
2 2 2 2 3 3 4 3 3 4 3 4 3 3 3 3 3 3 3 3 3 3 3 3 4 5 5 5 5 5 4 4 4 3 3 2 2 2 2 2 3 3 2
Wind_Direction
194 195 197 197 201 200 203 204 200 196 191 189 190 192 198 201 196 192 201 200 203 222 224 204 223 220 214 226 212 206 212 201 239 272 264 258 244 256 270 226 236 233 240
195 194 199 199 199 202 208 202 195 198 198 195 191 193 198 197 193 194 203 203 202 211 219 214 234 230 224 224 209 218 225 213 211 251 272 269 248 242 250 248 237 237 234
190 194 199 198 200 203 206 204 199 200 201 198 192 195 198 197 197 200 201 204 209 214 213 213 227 214 225 227 217 223 231 232 207 220 259 262 264 268 277 284 264 258 251
190 197 201 202 204 205 204 200 199 196 197 198 198 200 199 198 200 202 201 208 215 220 219 215 216 212 216 218 223 223 225 230 230 227 251 268 273 281 249 275 294 287 277
187 197 206 208 202 198 201 202 198 198 203 198 194 200 204 203 207 201 203 207 211 218 228 227 226 221 219 216 220 221 213 220 231 232 244 258 263 270 251 241 255 274 281
190 197 199 196 192 193 199 200 196 201 202 193 195 199 206 222 212 200 192 203 210 212 221 232 234 227 223 218 215 214 199 199 217 226 234 232 243 238 235 231 220 253 277
191 193 192 191 190 197 201 198 201 202 198 195 198 198 210 218 196 195 200 201 207 213 214 213 226 230 197 143 115 61 241 223 209 203 217 228 225 222 203 220 234 232 242
195 198 200 193 191 196 198 204 210 202 193 191 193 194 197 209 193 198 202 209 215 220 218 210 201 208 205 161 143 120 287 284 255 224 209 220 218 211 200 205 214 228 269
191 196 192 185 184 183 190 205 211 195 189 187 190 193 194 213 200 194 190 202 211 219 214 208 195 200 201 171 154 162 310 325 336 204 195 211 216 211 186 150 153 134 291
185 183 176 176 180 183 190 195 203 194 192 184 190 197 194 206 201 189 183 190 200 220 228 232 216 201 197 182 175 174 193 251 305 13 4 355 352 224 198 180 182 184 213
160 143 144 165 173 175 182 182 184 184 169 163 172 195 202 206 189 183 179 189 190 190 203 237 255 210 194 192 184 189 207 199 153 115 29 355 354 341 293 201 193 188 192
145 147 157 157 163 165 170 171 165 168 162 165 165 189 215 212 187 179 171 174 170 167 187 211 238 197 177 176 167 162 162 131 126 105 45 314 295 284 289 280 232 218 219
134 145 155 142 144 173 175 180 176 178 175 175 175 187 208 214 188 159 150 151 147 161 177 177 156 141 127 129 126 124 123 112 118 143 231 260 258 256 298 329 325 317 308
143 148 142 141 139 147 160 174 179 181 176 179 179 184 190 189 193 173 165 158 136 125 120 97 95 97 99 107 89 75 95 132 154 192 241 274 312 1 1 341 336 345 332
132 138 137 145 150 132 117 127 173 184 184 184 188 182 178 195 213 184 172 172 170 162 127 87 80 80 84 68 63 42 46 63 77 323 281 337 346 360 345 353 29 66 20
136 143 146 152 150 144 135 95 57 99 140 171 181 180 194 197 183 171 168 164 153 144 128 134 147 153 162 173 173 207 302 256 251 247 247 201 281 298 324 344 12 43 269
154 169 166 162 164 166 161 147 125 43 49 67 161 176 181 184 177 173 171 158 152 144 137 162 175 185 190 188 190 201 235 253 239 224 243 241 238 255 316 320 327 331 301
148 165 168 175 179 178 177 172 166 164 164 335 338 170 166 169 169 162 150 130 129 150 161 175 188 192 190 192 201 212 226 234 222 241 258 271 242 218 308 303 295 288 296
148 177 172 175 181 183 179 172 169 170 172 180 121 52 130 131 127 136 140 142 162 179 186 189 195 192 191 197 206 208 205 214 221 222 242 252 245 204 245 270 289 314 330
148 165 164 165 171 171 171 171 175 174 176 180 184 180 140 112 122 147 168 174 176 185 189 194 199 190 184 185 189 189 188 197 202 197 232 254 244 208 218 233 241 287 279
161 171 166 155 164 173 177 178 178 177 178 179 189 187 166 166 183 189 193 196 196 200 200 195 194 190 184 180 178 170 170 189 195 196 204 230 234 240 248 235 245 252 277
169 179 177 169 169 172 177 179 175 175 181 181 180 182 180 179 185 194 202 206 207 205 195 182 187 193 189 184 179 176 181 195 209 208 213 225 230 241 250 260 270 269 277
171 180 179 179 178 176 175 180 183 183 185 187 186 183 187 197 204 207 209 207 197 194 185 176 180 189 181 177 174 177 190 209 217 211 210 221 231 235 237 250 256 257 263
191 196 188 185 188 183 184 193 195 192 190 194 198 196 197 201 206 211 210 204 197 193 180 175 182 188 187 181 180 186 199 213 213 208 204 210 221 234 239 244 252 257 256
192 202 202 199 196 193 194 203 202 197 194 197 200 200 201 198 199 201 193 181 174 176 181 177 177 185 188 188 189 198 212 214 212 205 199 200 214 225 231 241 253 265 260
191 202 206 197 194 193 195 200 199 195 189 187 192 192 189 186 188 185 175 167 173 179 179 174 169 169 176 189 197 200 203 204 204 195 182 185 201 230 235 241 257 254 253
Height
1515 1517 1519 1521 1523 1525 1527 1528 1530 1531 1533 1533 1534 1535 1536 1536 1537 1537 1538 1538 1538 1538 1538 1538 1537 1537 1536 1536 1536 1536 1535 1535 1533 1532 1532 1532 1531 1531 1530 1529 1529 1528 1528
1511 1513 1515 1517 1519 1521 1522 1523 1525 1528 1529 1531 1532 1532 1533 1533 1534 1534 1535 1535 1535 1534 1535 1535 1534 1534 1533 1533 1533 1532 1532 1531 1530 1528 1528 1528 1528 1528 1527 1526 1525 1525 1525
1508 1509 1511 1513 1515 1516 1518 1520 1522 1524 1526 1527 1528 1529 1529 1530 1530 1531 1531 1531 1531 1531 1531 1531 1531 1530 1530 1529 1529 1528 1528 1528 1527 1526 1524 1524 1524 1524 1523 1523 1522 1522 1521
1504 1505 1507 1508 1510 1512 1514 1516 1518 1520 1522 1523 1524 1525 1526 1526 1527 1527 1527 1528 1527 1527 1527 1527 1527 1527 1526 1526 1525 1525 1524 1524 1523 1522 1521 1520 1520 1520 1520 1519 1518 1518 1518
1500 1501 1503 1505 1506 1508 1510 1512 1514 1516 1517 1519 1520 1521 1522 1522 1523 1523 1523 1523 1523 1523 1523 1523 1523 1523 1522 1522 1521 1521 1521 1520 1519 1518 1517 1516 1516 1516 1515 1515 1514 1514 1514
1496 1497 1499 1501 1502 1504 1505 1507 1510 1511 1513 1514 1515 1517 1517 1518 1518 1519 1519 1519 1519 1519 1519 1519 1519 1519 1518 1518 1518 1517 1517 1516 1515 1514 1513 1512 1512 1512 1512 1512 1511 1510 1509
1492 1494 1495 1496 1497 1499 1501 1502 1504 1506 1508 1509 1511 1512 1513 1513 1514 1514 1514 1514 1514 1514 1514 1514 1514 1514 1514 1514 1513 1513 1512 1512 1511 1510 1509 1508 1508 1508 1508 1508 1508 1507 1506
1489 1490 1491 1492 1493 1495 1497 1498 1500 1501 1503 1504 1506 1507 1508 1508 1509 1509 1510 1510 1510 1510 1510 1510 1510 1510 1510 1510 1509 1509 1508 1508 1507 1506 1506 1505 1505 1505 1505 1505 1504 1504 1504
1485 1486 1487 1488 1489 1490 1492 1493 1495 1497 1498 1499 1501 1502 1503 1503 1504 1504 1505 1505 1505 1505 1506 1507 1507 1507 1506 1506 1506 1505 1505 1504 1504 1503 1503 1503 1502 1502 1501 1501 1501 1501 1500
1481 1482 1483 1484 1485 1486 1488 1489 1491 1492 1493 1494 1496 1497 1498 1498 1499 1500 1500 1501 1501 1501 1502 1502 1503 1503 1503 1503 1503 1502 1501 1501 1501 1500 1500 1499 1499 1499 1498 1498 1498 1498 1497
1478 1479 1479 1480 1482 1483 1484 1485 1487 1488 1489 1489 1491 1492 1494 1494 1494 1495 1496 1497 1497 1497 1497 1498 1499 1499 1499 1499 1499 1499 1499 1498 1498 1498 1497 1496 1496 1496 1496 1496 1496 1496 1496
1476 1476 1477 1477 1478 1479 1480 1481 1483 1484 1485 1485 1486 1489 1490 1491 1491 1492 1492 1493 1493 1493 1494 1494 1495 1496 1496 1496 1496 1496 1496 1496 1496 1495 1495 1494 1494 1493 1493 1494 1494 1493 1493
1474 1474 1474 1475 1476 1477 1478 1478 1479 1481 1482 1483 1484 1485 1486 1487 1488 1489 1489 1489 1490 1491 1491 1492 1493 1494 1493 1494 1493 1493 1494 1493 1493 1493 1492 1492 1492 1491 1491 1491 1491 1491 1491
1471 1471 1472 1472 1473 1475 1475 1476 1477 1478 1479 1480 1481 1482 1483 1484 1485 1485 1486 1487 1488 1489 1489 1490 1491 1491 1491 1492 1491 1491 1491 1491 1491 1491 1491 1490 1490 1489 1488 1488 1488 1488 1488
1469 1470 1470 1470 1471 1472 1472 1473 1474 1475 1476 1477 1478 1480 1480 1481 1482 1483 1484 1484 1485 1487 1488 1488 1488 1489 1489 1489 1489 1489 1489 1489 1489 1489 1489 1488 1487 1487 1486 1486 1485 1485 1485
1467 1468 1468 1468 1469 1469 1470 1471 1472 1473 1475 1476 1477 1478 1479 1480 1481 1481 1482 1482 1484 1485 1486 1486 1486 1486 1487 1487 1487 1487 1487 1487 1487 1487 1487 1486 1486 1485 1484 1484 1484 1483 1482
1465 1466 1467 1467 1467 1468 1468 1469 1469 1471 1473 1474 1475 1476 1477 1478 1479 1479 1480 1481 1482 1483 1483 1483 1484 1485 1485 1485 1485 1485 1485 1485 1486 1486 1485 1485 1484 1483 1483 1482 1481 1481 1480
1464 1465 1465 1466 1466 1467 1467 1468 1469 1469 1470 1471 1473 1474 1475 1476 1477 1478 1479 1479 1480 1480 1481 1481 1482 1482 1483 1483 1483 1483 1483 1483 1483 1483 1483 1482 1482 1481 1481 1480 1479 1478 1478
1463 1463 1464 1464 1465 1465 1466 1467 1467 1468 1469 1469 1470 1471 1472 1473 1474 1475 1476 1477 1477 1478 1478 1479 1480 1480 1480 1481 1481 1481 1481 1481 1480 1480 1480 1479 1479 1479 1478 1478 1477 1476 1475
1462 1462 1462 1463 1463 1464 1464 1465 1466 1466 1467 1467 1468 1469 1470 1471 1472 1472 1473 1474 1475 1475 1476 1477 1477 1477 1478 1478 1478 1478 1478 1478 1478 1477 1477 1477 1476 1476 1475 1475 1474 1473 1473
1460 1460 1460 1461 1461 1462 1462 1463 1464 1464 1465 1465 1466 1468 1468 1469 1469 1470 1470 1471 1472 1473 1473 1473 1474 1474 1475 1475 1475 1475 1475 1475 1475 1474 1474 1474 1474 1473 1472 1472 1471 1471 1470
1458 1458 1459 1459 1460 1460 1461 1462 1463 1463 1464 1464 1465 1466 1466 1467 1467 1468 1468 1469 1469 1470 1471 1471 1471 1472 1472 1472 1472 1472 1472 1472 1472 1471 1471 1471 1470 1470 1469 1468 1468 1467 1467
1457 1457 1457 1457 1458 1459 1460 1460 1461 1462 1463 1463 1464 1464 1464 1465 1465 1465 1466 1466 1467 1467 1468 1469 1469 1469 1469 1469 1469 1469 1469 1468 1468 1468 1468 1468 1467 1466 1466 1465 1465 1464 1463
1455 1455 1455 1456 1457 1457 1458 1459 1460 1460 1461 1462 1462 1462 1463 1463 1463 1463 1464 1464 1465 1465 1465 1466 1466 1466 1466 1466 1466 1466 1465 1465 1465 1465 1464 1464 1463 1463 1462 1462 1461 1461 1460
1453 1454 1454 1455 1455 1456 1456 1457 1458 1458 1459 1460 1460 1460 1461 1461 1461 1461 1461 1462 1462 1462 1463 1463 1463 1463 1463 1463 1463 1462 1462 1462 1461 1461 1461 1460 1460 1459 1458 1458 1458 1457 1457
1452 1452 1452 1453 1453 1454 1455 1455 1456 1456 1456 1457 1458 1458 1458 1458 1458 1459 1459 1459 1460 1460 1460 1460 1460 1460 1460 1460 1460 1459 1459 1459 1458 1458 1457 1457 1456 1456 1455 1454 1454 1453 1453